Tracking 19575 objects as of 18-Feb-2019
HD Live streaming from Space Station
objects crossing your sky now

USA 48

Track USA 48 now!
USA 48 is classified as:


NORAD ID: 20355
Int'l Code: 1989-090B
Perigee: 34,501.1 km
Apogee: 36,826.7 km
Inclination: 18.3 °
Period: 1,429.5 minutes
Semi major axis: 42034 km
RCS: Unknown
Launch date: November 23, 1989
Source: United States (US)
Launch site: AIR FORCE EASTERN TEST RANGE (AFETR)
aabbcc
Your satellite tracking list
Your tracking list is empty




NASA's NSSDC Master Catalog

Two Line Element Set (TLE):
1 20355U 89090B   19025.02717421 0.00000000  00000-0  00000-0 0    05
2 20355  18.2501   8.5353 0276629  38.4765 323.4762  1.00736900    06
Source of the keplerian elements: McCants